ORBCOMM-X 1 21576U 91050C 26036.16354723 .00000408 00000+0 13324-3 0 9991 2 21576 98.3137 102.6836 0003465 182.9771 177.1400 14.43491220815726 ORBCOMM FM01 1 23545U 95017A 26036.20225182 .00013611 00000+0 12777-2 0 9997 2 23545 69.9605 211.4771 0006023 297.1359 62.9183 14.94072063647266 ORBCOMM FM02 1 23546U 95017B 26035.94619134 .00013435 00000+0 12018-2 0 9994 2 23546 69.9606 230.3855 0007202 300.6445 59.4002 14.95970247646900 ORBCOMM FM08 1 25112U 97084A 26036.17389913 .00002428 00000+0 70229-3 0 9995 2 25112 45.0144 328.5975 0007593 347.4952 12.5711 14.46855184475108 ORBCOMM FM10 1 25113U 97084B 26036.19272871 .00002467 00000+0 71716-3 0 9997 2 25113 45.0157 331.3333 0006152 318.5851 41.4534 14.46586092650243 ORBCOMM FM11 1 25114U 97084C 26036.16933191 .00002115 00000+0 62394-3 0 9996 2 25114 45.0143 332.5109 0007008 319.1270 40.9055 14.46323179475192 ORBCOMM FM12 1 25115U 97084D 26036.19749870 .00002448 00000+0 71540-3 0 9991 2 25115 45.0150 332.1006 0006068 317.4944 42.5437 14.46351981474998 ORBCOMM FM09 1 25116U 97084E 26036.18380360 .00002448 00000+0 71769-3 0 9999 2 25116 45.0155 333.3653 0007190 307.1842 52.8353 14.46181229475195 ORBCOMM FM05 1 25117U 97084F 26036.19074537 .00002567 00000+0 73886-3 0 9991 2 25117 45.0153 328.5076 0003666 321.7442 38.3149 14.46966114474343 ORBCOMM FM06 1 25118U 97084G 26036.25780256 .00002696 00000+0 77116-3 0 9994 2 25118 45.0146 327.6356 0002564 323.5325 195.2212 14.47140520475276 ORBCOMM FM07 1 25119U 97084H 26036.23926679 .00002564 00000+0 73522-3 0 9995 2 25119 45.0139 328.4673 0004442 318.1997 41.8515 14.47145808475267 ORBCOMM FM03 1 25158U 98007B 26036.05625085 .00001520 00000+0 57004-3 0 9999 2 25158 107.9664 254.1925 0045086 203.6238 156.2831 14.35226846457442 ORBCOMM FM04 1 25159U 98007C 26036.07056928 .00001371 00000+0 51732-3 0 9992 2 25159 107.9651 257.6011 0040784 201.0752 158.8708 14.35456765457633 ORBCOMM FM17 1 25413U 98046A 26034.89425445 .00000787 00000+0 31881-3 0 9993 2 25413 44.9930 243.6072 0002261 304.9473 55.1162 14.35672199436461 ORBCOMM FM18 1 25414U 98046B 26036.00893359 .00002005 00000+0 68435-3 0 9992 2 25414 44.9913 149.3514 0002931 5.4912 354.5969 14.39350314437784 ORBCOMM FM19 1 25415U 98046C 26036.33834539 .00002175 00000+0 74114-3 0 9993 2 25415 44.9926 150.1390 0001841 349.6177 39.4662 14.39174335437782 ORBCOMM FM20 1 25416U 98046D 26036.00901789 .00001378 00000+0 49996-3 0 9994 2 25416 44.9932 158.2053 0000695 199.9175 160.1646 14.37817026437766 ORBCOMM FM16 1 25417U 98046E 26036.33818308 .00002364 00000+0 79261-3 0 9999 2 25417 44.9921 144.9779 0002562 32.2799 327.8206 14.39737442437846 ORBCOMM FM15 1 25418U 98046F 26036.02662271 .00001727 00000+0 59587-3 0 9993 2 25418 44.9958 152.3205 0002423 34.3950 325.7055 14.39357115437789 ORBCOMM FM14 1 25419U 98046G 26035.63383026 .00001704 00000+0 58335-3 0 9993 2 25419 44.9946 151.6983 0001185 18.3205 341.7686 14.39786425437701 ORBCOMM FM13 1 25420U 98046H 26035.33690464 .00001405 00000+0 50307-3 0 9998 2 25420 44.9961 163.4834 0003619 359.3970 0.6874 14.38359079436650 ORBCOMM FM21 1 25475U 98053A 26036.30613651 .00001103 00000+0 40831-3 0 9993 2 25475 45.0070 245.0540 0001293 339.5779 20.5018 14.37940714430798 ORBCOMM FM22 1 25476U 98053B 26035.60634988 .00001264 00000+0 45028-3 0 9993 2 25476 45.0061 241.2086 0002786 322.7144 37.3511 14.39148633430741 ORBCOMM FM23 1 25477U 98053C 26035.99404058 .00001089 00000+0 40192-3 0 9991 2 25477 45.0070 248.2703 0002193 322.9893 37.0804 14.38195291430901 ORBCOMM FM24 1 25478U 98053D 26035.27979928 .00001128 00000+0 40940-3 0 9991 2 25478 45.0066 248.0625 0002040 330.7555 29.3179 14.38827958430867 ORBCOMM FM25 1 25479U 98053E 26036.01979394 .00001171 00000+0 42341-3 0 9997 2 25479 45.0057 242.8574 0004275 340.2875 19.7808 14.38799472431262 ORBCOMM FM26 1 25480U 98053F 26035.28860946 .00000865 00000+0 33161-3 0 9998 2 25480 45.0056 244.5477 0006269 351.2381 8.8357 14.37740823431042 ORBCOMM FM27 1 25481U 98053G 26035.93260237 .00001265 00000+0 45323-3 0 9996 2 25481 45.0040 243.3821 0000756 17.5402 342.5473 14.38838974431185 ORBCOMM FM28 1 25482U 98053H 26036.08450986 .00001463 00000+0 51581-3 0 9999 2 25482 45.0039 179.8881 0003399 36.8280 323.2801 14.38947394431893 ORBCOMM FM30 1 25980U 99065A 26036.29436338 .00001265 00000+0 46179-3 0 9991 2 25980 45.0317 65.8523 0004225 103.8923 256.2396 14.37908616367996 ORBCOMM FM31 1 25981U 99065B 26036.13982388 .00001208 00000+0 44390-3 0 9996 2 25981 45.0231 60.0295 0002436 155.4172 204.6793 14.37830831367526 ORBCOMM FM32 1 25982U 99065C 26036.13120282 .00001152 00000+0 43330-3 0 9995 2 25982 45.0157 78.2026 0004597 135.2076 224.9144 14.36895148368095 ORBCOMM FM33 1 25983U 99065D 26036.21951557 .00001493 00000+0 50719-3 0 9999 2 25983 45.0298 330.4894 0006714 158.5491 201.5642 14.40712302369663 ORBCOMM FM36 1 25984U 99065E 26036.13627216 .00001571 00000+0 55122-3 0 9993 2 25984 45.0392 66.3316 0002415 342.6096 17.4670 14.38888207367965 ORBCOMM FM35 1 25985U 99065F 26036.14972643 .00001205 00000+0 44313-3 0 9996 2 25985 45.0393 73.2136 0002509 158.9021 201.1931 14.37790089368304 ORBCOMM FM34 1 25986U 99065G 26034.45097429 .00000922 00000+0 35092-3 0 9998 2 25986 45.0389 81.7508 0001727 50.8738 309.2264 14.37707825368173 ORBCOMM FM38 1 33060U 08031A 26036.10718593 .00002618 00000+0 34844-3 0 9997 2 33060 48.4389 284.2661 0004798 322.5332 37.5250 14.82578612949296 ORBCOMM FM41 1 33061U 08031B 26036.14000727 .00002469 00000+0 33378-3 0 9990 2 33061 48.4430 292.7238 0004131 306.6138 206.8706 14.82117606948777 ORBCOMM FM29 1 33062U 08031C 26036.10226005 .00002836 00000+0 37790-3 0 9996 2 33062 48.4386 300.3853 0005756 307.1344 196.0779 14.82285494948687 ORBCOMM FM39 1 33063U 08031D 26036.14210092 .00002510 00000+0 35035-3 0 9999 2 33063 48.4408 327.1395 0006841 278.5727 81.4413 14.80685756948307 ORBCOMM FM37 1 33064U 08031E 26036.17632459 .00002399 00000+0 33455-3 0 9997 2 33064 48.4399 315.1366 0005377 297.3666 215.8155 14.80879358948563 ORBCOMM FM40 1 33065U 08031F 26036.11683712 .00003123 00000+0 40187-3 0 9996 2 33065 48.4410 295.3030 0006190 313.2934 208.9383 14.83477981948728 VESSELSAT 1 1 37840U 11058C 26035.91332139 .00000399 00000+0 72742-4 0 9990 2 37840 19.9613 125.5937 0013471 226.5852 133.3431 14.11412896739229 ORBCOMM FM109 1 40086U 14040A 26036.25261814 .00001156 00000+0 28177-3 0 9993 2 40086 47.0049 355.1849 0002321 318.7993 41.2717 14.58669045615087 ORBCOMM FM107 1 40087U 14040B 26036.26904154 .00001271 00000+0 30581-3 0 9996 2 40087 47.0066 355.9730 0001836 277.6940 82.3737 14.58747173615165 ORBCOMM FM106 1 40088U 14040C 26036.32615665 .00001708 00000+0 31131-3 0 9997 2 40088 47.0593 158.9209 0015566 70.5008 289.7564 14.70217953617775 ORBCOMM FM111 1 40089U 14040D 26036.21149217 .00004761 00000+0 53046-3 0 9992 2 40089 47.0017 337.3134 0028946 230.6541 129.1791 14.88138948624912 ORBCOMM FM104 1 40090U 14040E 26036.03532667 .00000805 00000+0 21414-3 0 9998 2 40090 47.0059 33.5097 0016190 192.8359 167.2116 14.57114040614575 ORBCOMM FM103 1 40091U 14040F 26036.25467953 .00001119 00000+0 27407-3 0 9995 2 40091 47.0069 356.7377 0002468 275.4320 84.6284 14.58653822598124 ORBCOMM FM114 1 41179U 15081A 26036.06514661 .00000706 00000+0 18628-3 0 9993 2 41179 47.0043 266.5812 0002629 309.2973 50.7679 14.58672640538467 ORBCOMM FM119 1 41180U 15081B 26035.44670135 .00000840 00000+0 21492-3 0 9997 2 41180 46.9991 178.8607 0000585 351.0511 9.0365 14.58613458539628 ORBCOMM FM105 1 41181U 15081C 26035.77074200 .00000336 00000+0 13900-3 0 9990 2 41181 46.9998 205.0525 0002137 276.2635 83.8002 14.45463585534395 ORBCOMM FM110 1 41182U 15081D 26036.05429026 .00000898 00000+0 22705-3 0 9999 2 41182 47.0015 266.1120 0002770 193.6356 166.4455 14.58662842538331 ORBCOMM FM118 1 41183U 15081E 26036.02033051 .00000859 00000+0 21873-3 0 9998 2 41183 47.0033 266.5804 0002626 150.8974 209.2059 14.58665779538435 ORBCOMM FM112 1 41184U 15081F 26035.40688871 .00001149 00000+0 28030-3 0 9991 2 41184 46.9979 177.9940 0002084 296.4709 63.5963 14.58659594539568 ORBCOMM FM113 1 41185U 15081G 26035.45264422 .00001174 00000+0 28567-3 0 9992 2 41185 46.9992 178.1411 0001729 300.2293 59.8421 14.58663433539550 ORBCOMM FM115 1 41186U 15081H 26035.62740805 .00001137 00000+0 25354-3 0 9996 2 41186 46.9998 13.6339 0000799 347.0504 13.0363 14.63051235541804 ORBCOMM FM108 1 41187U 15081J 26036.16882081 .00001294 00000+0 31120-3 0 9992 2 41187 47.0048 86.2842 0003446 296.0740 63.9791 14.58669238540805 ORBCOMM FM117 1 41188U 15081K 26036.20271258 .00001358 00000+0 32483-3 0 9990 2 41188 47.0012 84.8004 0003681 303.3601 56.6932 14.58663442540852 ORBCOMM FM116 1 41189U 15081L 26035.42991370 .00000734 00000+0 19240-3 0 9991 2 41189 47.0011 178.2328 0001937 188.8709 171.2142 14.58641851539558